Location: Newark
(48.5178°N, 4.2361°E)
Time: 21:28:43
(UTC+00:00)

Envisat - Visible Passes

Search period start: 11 December 2019 00:00
Search period end: 21 December 2019 00:00
Orbit: 764 x 766 km, 98.1° (Epoch: 11 December)

Date Brightness Start Highest point End Pass type
(mag) Time Alt. Az. Time Alt. Az. Time Alt. Az.
11 Dec 5.2 05:44:03 10° NE 05:48:24 28° E 05:52:43 10° SSE visible
11 Dec 3.1 17:02:04 10° SE 17:06:59 52° ENE 17:11:55 10° N visible
11 Dec 5.3 18:42:16 10° SW 18:46:18 24° W 18:50:23 10° NW visible
12 Dec 6.1 05:08:42 10° ENE 05:11:11 14° E 05:13:41 10° ESE visible
12 Dec 3.1 06:45:49 10° NNE 06:50:56 89° WNW 06:56:01 10° SSW visible
12 Dec 3.9 16:26:15 10° ESE 16:30:28 27° ENE 16:34:42 10° N visible
12 Dec 4.0 18:04:22 10° S 18:09:16 47° W 18:14:12 10° NNW visible
13 Dec 4.3 06:09:11 10° NNE 06:14:05 45° E 06:18:56 10° S visible
13 Dec 2.9 17:27:20 10° SSE 17:32:25 85° ENE 17:37:32 10° NNW visible
13 Dec 5.9 19:09:25 10° WSW 19:12:07 14° W 19:14:50 10° NW visible
14 Dec 5.6 05:33:02 10° NE 05:37:01 22° E 05:40:58 10° SE visible
14 Dec 3.3 16:51:00 10° SE 16:55:46 43° ENE 17:00:33 10° N visible
14 Dec 4.9 18:30:33 10° SSW 18:34:55 29° W 18:39:20 10° NW visible
15 Dec 6.3 04:58:38 10° ENE 04:59:45 11° E 05:00:50 10° E visible
15 Dec 3.3 06:34:32 10° NNE 06:39:39 75° ESE 06:44:44 10° S visible
15 Dec 4.1 16:15:23 10° ESE 16:19:17 23° ENE 16:23:13 10° N visible
15 Dec 3.6 17:52:56 10° S 17:57:56 59° W 18:02:59 10° NNW visible
16 Dec 4.7 05:58:01 10° NNE 06:02:44 36° E 06:07:24 10° SSE visible
16 Dec 2.9 17:16:07 10° SSE 17:21:09 70° ENE 17:26:13 10° N visible
16 Dec 5.7 18:57:18 10° SW 19:00:41 18° W 19:04:06 10° NW visible
17 Dec 5.8 05:22:07 10° NE 05:25:36 18° E 05:29:05 10° SE visible
17 Dec 3.6 16:39:58 10° SE 16:44:33 35° ENE 16:49:09 10° N visible
17 Dec 4.6 18:18:55 10° SSW 18:23:33 35° W 18:28:14 10° NNW visible
18 Dec 3.7 06:23:17 10° NNE 06:28:21 61° E 06:33:22 10° S visible
18 Dec 3.2 17:41:34 10° S 17:46:38 73° WSW 17:51:44 10° NNW visible
18 Dec 6.2 19:25:55 10° W 19:26:34 10° W 19:27:13 10° WNW visible
19 Dec 5.1 05:46:54 10° NNE 05:51:22 30° E 05:55:47 10° SSE visible
19 Dec 3.0 17:04:57 10° SSE 17:09:54 56° ENE 17:14:53 10° N visible
19 Dec 5.4 18:45:24 10° SW 18:49:17 22° W 18:53:11 10° NW visible
20 Dec 6.0 05:11:21 10° NE 05:14:10 15° E 05:17:00 10° ESE visible
20 Dec 3.0 06:48:45 10° NNE 06:53:52 83° WNW 06:58:57 10° SSW visible
20 Dec 3.8 16:29:01 10° ESE 16:33:21 29° ENE 16:37:42 10° N visible
20 Dec 4.2 18:07:23 10° S 18:12:12 44° W 18:17:05 10° NNW visible
